weather.gov     
National Weather Service

Regional Weather Roundup
NWS Homepage
This page is being discontinued on March 12, 2014.
The same data is available at this site. Please update your bookmarks.
Thank you, and we apologize for the inconvenience.
Please send an email to SR-SRH.Webmaster@noaa.gov with any concerns.


Current Version
Previous Version:    01  02  03  04  05  06  07  08  09  10  11  12  13  14  15  16  17  18  19  20  21  22  23  24  25  26  
[Printable]
297
ASUS44 KBMX 240610
RWRAL

ALABAMA REGIONAL WEATHER ROUNDUP
NATIONAL WEATHER SERVICE BIRMINGHAM AL
100 AM CDT THU JUL 24 2014

NOTE: "FAIR" INDICATES FEW OR NO CLOUDS BELOW 12,000 FEET
WITH NO SIGNIFICANT WEATHER AND/OR OBSTRUCTIONS TO VISIBILITY.

THE REMARK "TC" DENOTES TEMPERATURE IN DEGREES CELSIUS.

ALZ001>011-014-016>018-020-240700-
NORTH ALABAMA

CITY           SKY/WX    TMP DP  RH WIND       PRES   REMARKS
MUSCLE SHOALS  MOCLDY    73  69  87 CALM      30.00F
6HR MIN TEMP:  71; 6HR MAX TEMP:  78;

HUNTSVILLE     PTCLDY    73  70  90 S3        29.99F
6HR MIN TEMP:  72; 6HR MAX TEMP:  79;

DECATUR        PTCLDY    71  70  96 CALM      30.00F
6HR MIN TEMP:  71; 6HR MAX TEMP:  78;

HALEYVILLE     FAIR      70  70 100 CALM      30.04F
6HR MIN TEMP:  70; 6HR MAX TEMP:  76;

GADSDEN        CLEAR     72  70  94 CALM      29.99F
6HR MIN TEMP:  72; 6HR MAX TEMP:  81;

$$

ALZ012-013-022-023-030>036-040>044-240700-
WEST CENTRAL ALABAMA

CITY           SKY/WX    TMP DP  RH WIND       PRES   REMARKS
TUSCALOOSA     CLEAR     73  71  93 W5        30.00S
6HR MIN TEMP:  72; 6HR MAX TEMP:  80;

$$

ALZ015-024>027-033>036-040>044-240700-
CENTRAL ALABAMA

CITY           SKY/WX    TMP DP  RH WIND       PRES   REMARKS
BIRMINGHAM     PTCLDY    73  70  90 CALM      30.02F
6HR MIN TEMP:  73; 6HR MAX TEMP:  81;

MONTGOMERY     CLEAR     76  72  87 NW5       30.01R
6HR MIN TEMP:  76; 6HR MAX TEMP:  86;

SHELBY CO ARPT MOCLDY    74  73  97 CALM      30.01S
6HR MIN TEMP:  74; 6HR MAX TEMP:  76; 6HR PCP:  0.01;

MAXWELL AFB    CLOUDY    77  74  91 S1        30.00S
6HR MIN TEMP:  75; 6HR MAX TEMP:  88;

GREENVILLE     FAIR      74  71  91 CALM      30.00F FOG
6HR MIN TEMP:  74; 6HR MAX TEMP:  85;

$$

ALZ019-021-028-029-037-038-045>048-240700-
EAST CENTRAL ALABAMA

CITY           SKY/WX    TMP DP  RH WIND       PRES   REMARKS
ANNISTON       CLEAR     71  70  96 CALM      30.00F
6HR MIN TEMP:  70; 6HR MAX TEMP:  74; 6HR PCP:  0.02;

ALEXANDER CITY NOT AVBL
AUBURN         CLEAR     73  70  88 CALM      30.05S
6HR MIN TEMP:  73; 6HR MAX TEMP:  82;

$$

ALZ051>064-240700-
SOUTHWEST ALABAMA

CITY           SKY/WX    TMP DP  RH WIND       PRES   REMARKS
MOBILE         CLEAR     72  72 100 CALM      30.00F
6HR MIN TEMP:  72; 6HR MAX TEMP:  82;

BROOKLEY FIELD CLEAR     73  72  96 CALM      30.01F
6HR MIN TEMP:  72; 6HR MAX TEMP:  82;

EVERGREEN      CLEAR     74  71  91 CALM      30.01S FOG
6HR MIN TEMP:  74; 6HR MAX TEMP:  83;

$$

ALZ049-050-065>069-240700-
SOUTHEAST ALABAMA

CITY           SKY/WX    TMP DP  RH WIND       PRES   REMARKS
DOTHAN         CLEAR     75  72  90 SW6       30.04F
6HR MIN TEMP:  75; 6HR MAX TEMP:  85;

OZARK          CLEAR     74  72  94 S3        30.01F
6HR MIN TEMP:  74; 6HR MAX TEMP:  84;

TROY           CLEAR     73  71  93 CALM      30.01F
6HR MIN TEMP:  73; 6HR MAX TEMP:  85;

EUFAULA        FAIR      73  72  96 CALM      29.99F FOG
6HR MIN TEMP:  73; 6HR MAX TEMP:  86;

$$




U.S. Dept. of Commerce
NOAA National Weather Service
1325 East West Highway
Silver Spring, MD 20910
E-mail: w-nws.webmaster@noaa.gov
Page last modified: May 16, 2007
NATIONAL WEATHER SERVICE: for Safety, for Work, for Fun - FOR LIFE